User: anonymous   Login
Location: Wildcat Hills Observatory
(41.6350°N, 103.6812°W)
Time: 08:10:48
(UTC-06:00)
Language:

Cosmos 1634 Rocket - Orbit

View from above orbital plane
View from above orbital plane
View from above satellite
View from above satellite

Ground track
Ground track

The orbit data is extracted from the following two-line orbital elements,

1 15598U 85022B   17293.86931490 +.00000049 +00000-0 +34340-4 0  9998
2 15598 082.9410 013.6853 0023421 116.6591 020.2728 13.76559717637515
Epoch (UTC): 20 October 2017 20:51:48
Eccentricity: 0.0023421
inclination: 82.9410°
perigee height: 959 km
apogee height: 993 km
right ascension of ascending node: 13.6853°
argument of perigee: 116.6591°
revolutions per day: 13.76559717
mean anomaly at epoch: 20.2728°
orbit number at epoch: 63751

The dashed part of the orbit path shows where the satellite is in the earth's shadow,  

DLR